STARLINK-32629 (62150 NORAD) Tracking and Keplerian Element Data

This shows tracking and keplerian element data for the satellite.

Feedback or suggestion? Click here.




ElementValue
Catalog62150
NameSTARLINK-32629
Epoch Orbit1142
Epoch Day35.02348124
Epoch Year2025
RAAN256.9578
Inclination42.9985
Eccentricity5.18E-05
Argument of Perigee261.8961
Mean Anonmoly98.1833
Mean Motion15.32075802
Decay Rate-1.314E-05
L11 62150U 24224M 25035.02348124 -.00001314 00000+0 -32877-4 0 9998
L22 62150 42.9985 256.9578 0000518 261.8961 98.1833 15.32075802 11425



Live tracking and technical data element details for STARLINK-32629 (NORAD 62150). STARLINK-32629 can be tracked NOW for your location showing map with azimuth and elevation plus other details from your city location.







IsCatalogInMostPopularTable: catalog: 62150, numindb: 15
Update: records affected: 1



GetName: 62150 STARLINK-32629

Hit Count: updated at: Sat, 24 May 2025 17:28:54 GMT